Location: Oriwa
(40.7500°S, 175.3333°E)
Time: 14:08:42
(UTC+00:00)

BlueWalker 3 - Pass Details

Date: 03 February 2023
Orbit: 497 x 514 km, 53.2° (Epoch: 31 March)

Event Time Altitude Azimuth Distance (km) Brightness Sun altitude
Exits shadow 15:55:29 30° 288° (WNW) 947 2.8 -15.9°
Maximum altitude 15:57:16 63° 217° (SW) 585 2.2 -15.7°
Drops below altitude 10° 16:01:15 10° 134° (SE) 1,765 6.1 -15.1°
Sets 16:03:28 0° 131° (SE) 2,649 7.6 -14.8°
